This demonstration page uses our WeatherBlox Daily Observations layout. Learn more.

Left ArrowRight Arrow

Hourly Observations for February 20, 2017

Temp ( °F °C ) Dew Point ( °F °C ) Humidity (%) Winds ( mph kmh ) Pressure ( in mb ) Visibility ( mi km ) Precip ( " mm )
12:49 am 00:49 Mostly Cloudy with Mist and Fog 34 1 34 1 100 100 N N/A 30.21 1023 1 2 N/A
12:51 am 00:51 Mostly Cloudy with Mist and Fog 34 1 34 1 100 100 N N/A 30.21 1023 2 3 N/A
12:53 am 00:53 Mostly Cloudy with Mist and Fog 34 1.1 34 1.1 100 100 N N/A 30.20 1023 2 3 N/A
1:02 am 01:02 Mostly Cloudy with Fog 34 1.1 34 1.1 100 100 N N/A 30.21 1023 1 1 N/A
1:53 am 01:53 Mostly Cloudy with Fog 34 1.1 34 1.1 100 100 N N/A 30.20 1023 0 0 N/A
2:53 am 02:53 Mostly Cloudy with Fog 34 1.1 34 1.1 100 100 N N/A 30.20 1023 5 8 N/A
3:53 am 03:53 Mostly Cloudy with Fog 37 2.8 37 2.8 100 100 N N/A 30.20 1023 5 8 N/A
4:53 am 04:53 Mostly Cloudy with Fog 39 3.9 39 3.9 100 100 N N/A 30.21 1023 5 8 N/A
5:53 am 05:53 Mostly Cloudy with Fog 39 3.9 39 3.9 100 100 N N/A 30.24 1024 5 8 N/A
6:53 am 06:53 Mostly Cloudy with Fog 40 4.4 40 4.4 100 100 N N/A 30.25 1025 5 8 N/A
7:53 am 07:53 Mostly Cloudy with Fog 40 4.4 40 4.4 100 100 N N/A 30.27 1025 5 8 N/A
8:53 am 08:53 Mostly Cloudy with Fog 42 5.6 42 5.6 100 100 E 5 7 30.28 1025 5 8 N/A
9:53 am 09:53 Mostly Cloudy with Fog 43 6.1 43 6.1 100 100 E 5 7 30.27 1025 5 8 N/A
10:50 am 10:50 Cloudy with Mist and Fog 46 8 46 8 100 100 ESE 5 7 30.24 1024 2 3 N/A
10:53 am 10:53 Cloudy with Mist and Fog 46 7.8 46 7.8 100 100 E 3 6 30.26 1025 2 3 N/A
11:09 am 11:09 Cloudy with Mist and Fog 48 8.9 48 8.9 100 100 N N/A 30.24 1024 2 3 N/A
11:32 am 11:32 Mostly Cloudy with Mist and Fog 50 10 49 9.4 96 96 N N/A 30.27 1025 3 5 N/A
11:43 am 11:43 Partly Cloudy with Mist and Fog 52 11.1 49 9.4 89 89 N N/A 30.24 1024 4 6 N/A
11:53 am 11:53 Partly Cloudy with Mist and Fog 54 12.2 50 10 87 87 N N/A 30.25 1024 5 8 N/A
12:53 pm 12:53 Sunny 60 15.6 47 8.3 62 62 ENE 5 7 30.22 1023 9 14 N/A
1:53 pm 13:53 Sunny 64 17.8 47 8.3 54 54 E 6 9 30.18 1022 10 16 N/A
2:53 pm 14:53 Sunny 64 17.8 46 7.8 52 52 VRB 6 9 30.16 1021 10 16 N/A
3:53 pm 15:53 Sunny 66 18.9 47 8.3 50 50 ESE 6 9 30.14 1021 10 16 N/A
4:53 pm 16:53 Sunny 66 18.9 44 6.7 45 45 SE 5 7 30.12 1020 10 16 N/A
5:53 pm 17:53 Sunny 62 16.7 45 7.2 54 54 ESE 3 6 30.13 1020 10 16 N/A
6:53 pm 18:53 Clear 54 12.2 44 6.7 69 69 E 5 7 30.13 1020 10 16 N/A
7:53 pm 19:53 Clear 53 11.7 44 6.7 72 72 E 6 9 30.12 1020 10 16 N/A
8:53 pm 20:53 Clear 51 10.6 43 6.1 74 74 E 5 7 30.12 1020 10 16 N/A
9:53 pm 21:53 Clear 54 12.2 42 5.6 64 64 N N/A 30.12 1020 10 16 N/A
10:53 pm 22:53 Clear 51 10.6 42 5.6 71 71 E 6 9 30.09 1019 10 16 N/A
11:53 pm 23:53 Clear 47 8.3 41 5 80 80 E 5 7 30.06 1018 10 16 N/A

Powered by AerisWeather